W5HRH Weather Reports


time (UTC)temp
C
wind
direction
speed
KPH
gust
KPH
rain 1hr
cm
rain 24hr
cm
rain mn
cm
humidity
%
barometer
mb
20260510043554 24 169 6.4 17.7 0.00 0.15 0.15 87 1013.2
20260510043105 24 127 4.8 14.5 0.00 0.15 0.15 87 1013.5
20260510042553 24 155 3.2 14.5 0.00 0.15 0.15 87 1013.5
20260510042057 24 151 3.2 11.3 0.00 0.15 0.15 87 1013.5
20260510041553 24 132 1.6 11.3 0.00 0.15 0.15 87 1013.6
20260510041054 25 147 1.6 12.9 0.00 0.15 0.15 87 1013.6
20260510040553 25 137 3.2 12.9 0.00 0.15 0.15 88 1013.5
20260510040104 25 117 1.6 12.9 0.00 0.15 0.15 88 1013.3
20260510035551 25 164 3.2 14.5 0.00 0.15 0.15 88 1013.2
20260510035051 25 141 4.8 14.5 0.00 0.15 0.15 88 1013.0
20260510034559 25 141 3.2 11.3 0.00 0.15 0.15 88 1013.3
20260510034052 25 74 1.6 14.5 0.00 0.15 0.15 88 1013.5
20260510033553 25 86 1.6 14.5 0.00 0.15 0.15 88 1013.5
20260510033051 25 134 3.2 12.9 0.00 0.15 0.15 87 1013.7
20260510032550 25 113 1.6 20.9 0.00 0.15 0.15 87 1013.6
20260510032051 25 44 3.2 17.7 0.00 0.15 0.15 87 1013.4
20260510031601 25 126 1.6 24.1 0.00 0.15 0.15 86 1013.6
20260510031051 26 141 4.8 24.1 0.00 0.15 0.15 85 1013.6
20260510030553 26 161 4.8 22.5 0.00 0.15 0.15 84 1013.6
20260510030049 26 229 3.2 19.3 0.00 0.15 0.15 80 1013.4
20260510025548 26 81 3.2 12.9 0.00 0.15 0.15 75 1013.3
20260510025048 25 142 1.6 12.9 0.00 0.15 0.15 75 1013.2
20260510024546 25 144 3.2 12.9 0.00 0.15 0.15 75 1012.9
20260510024045 25 92 3.2 11.3 0.00 0.15 0.15 76 1012.8
20260510023545 25 170 4.8 11.3 0.00 0.15 0.15 76 1012.6
20260510023047 25 130 3.2 11.3 0.00 0.15 0.15 77 1012.3
20260510022545 25 163 0.0 4.8 0.00 0.15 0.15 79 1012.4
20260510022045 25 147 0.0 4.8 0.00 0.15 0.15 81 1012.1
20260510021545 25 136 0.0 3.2 0.00 0.15 0.15 82 1012.0
20260510021044 25 140 0.0 3.2 0.00 0.15 0.15 83 1011.9
20260510020544 25 150 0.0 3.2 0.00 0.15 0.15 84 1011.8
20260510020044 25 105 0.0 1.6 0.00 0.15 0.15 84 1011.7
20260510015543 25 103 0.0 1.6 0.00 0.15 0.15 84 1011.3
20260510015042 25 103 0.0 1.6 0.00 0.15 0.15 83 1011.2
20260510014644 25 103 0.0 1.6 0.00 0.15 0.15 82 1011.0
20260510014042 25 101 0.0 1.6 0.00 0.15 0.15 82 1010.9
20260510013545 25 101 0.0 1.6 0.00 0.15 0.15 82 1010.9
20260510013050 25 101 0.0 0.0 0.00 0.15 0.15 81 1010.9
20260510012545 25 101 0.0 3.2 0.00 0.15 0.15 81 1010.7
20260510012042 25 101 0.0 4.8 0.00 0.15 0.15 81 1010.5
20260510011543 25 99 0.0 4.8 0.00 0.15 0.15 81 1010.7
20260510011043 25 76 0.0 4.8 0.00 0.15 0.15 81 1010.6
20260510010541 25 108 0.0 3.2 0.00 0.15 0.15 80 1010.6
20260510010042 25 129 0.0 1.6 0.00 0.15 0.15 80 1010.2
20260510005541 25 129 0.0 0.0 0.00 0.15 0.15 79 1010.0
20260510005041 25 129 0.0 1.6 0.00 0.15 0.15 79 1010.1
20260510004540 25 129 0.0 3.2 0.00 0.15 0.15 79 1010.0
20260510004040 25 129 0.0 4.8 0.00 0.15 0.15 80 1010.0
20260510003540 25 128 3.2 4.8 0.00 0.15 0.15 78 1010.1
20260510003040 26 121 1.6 3.2 0.00 0.15 0.15 77 1010.1
20260510002542 26 193 0.0 6.4 0.00 0.15 0.15 76 1010.0
20260510002039 26 208 1.6 9.7 0.03 0.15 0.15 76 1010.2
20260510001540 26 237 1.6 9.7 0.03 0.15 0.15 79 1010.2
20260510001039 26 330 1.6 4.8 0.03 0.15 0.15 83 1010.1
20260510000539 26 151 1.6 6.4 0.05 0.15 0.15 83 1010.0
20260510000039 27 141 0.0 4.8 0.05 0.15 0.15 84 1010.1
20260509235538 27 137 1.6 4.8 0.15 0.15 0.15 82 1010.1
20260509235039 27 134 0.0 4.8 0.15 0.15 0.15 83 1009.8
20260509234540 27 157 0.0 4.8 0.15 0.15 0.15 82 1009.5
20260509234041 27 116 0.0 3.2 0.15 0.15 0.15 80 1009.8
20260509233538 27 115 0.0 4.8 0.15 0.15 0.15 79 1009.7
20260509233037 27 80 0.0 6.4 0.15 0.15 0.15 78 1009.6
20260509232537 28 104 0.0 4.8 0.15 0.15 0.15 78 1009.6
20260509232037 28 115 0.0 3.2 0.13 0.13 0.13 79 1009.6
20260509231537 29 115 0.0 3.2 0.13 0.13 0.13 76 1009.7
20260509231037 30 110 0.0 3.2 0.13 0.13 0.13 74 1009.7
20260509230536 31 109 0.0 3.2 0.10 0.10 0.10 71 1009.8
20260509230040 31 28 0.0 0.0 0.10 0.10 0.10 66 1009.8
20260509225536 31 28 0.0 1.6 0.00 0.00 0.00 64 1009.5
20260509225036 31 28 0.0 3.2 0.00 0.00 0.00 63 1009.5
20260509224538 31 27 0.0 3.2 0.00 0.00 0.00 63 1009.5
20260509224035 31 23 0.0 3.2 0.00 0.00 0.00 63 1009.5
20260509223535 31 23 0.0 3.2 0.00 0.00 0.00 62 1009.5
20260509223035 31 23 0.0 4.8 0.00 0.00 0.00 62 1009.4
20260509222535 31 98 1.6 4.8 0.00 0.00 0.00 63 1009.4
20260509222036 31 99 1.6 4.8 0.00 0.00 0.00 63 1009.4
20260509221534 31 136 1.6 9.7 0.00 0.00 0.00 63 1009.3
20260509221034 32 153 3.2 9.7 0.00 0.00 0.00 62 1009.3
20260509220534 32 93 0.0 4.8 0.00 0.00 0.00 63 1009.4
20260509220038 32 92 0.0 8.0 0.00 0.00 0.00 63 1009.2
20260509215533 32 158 0.0 8.0 0.00 0.00 0.00 62 1009.3
20260509215033 32 28 3.2 6.4 0.00 0.00 0.00 62 1009.2
20260509214534 32 105 1.6 6.4 0.00 0.00 0.00 63 1009.2
20260509214033 32 166 1.6 9.7 0.00 0.00 0.00 62 1009.2
20260509213530 31 130 1.6 9.7 0.00 0.00 0.00 63 1009.2
20260509213030 31 89 1.6 8.0 0.00 0.00 0.00 64 1009.2
20260509212528 31 148 3.2 9.7 0.00 0.00 0.00 63 1009.3
20260509212032 31 100 3.2 9.7 0.00 0.00 0.00 63 1009.5
20260509211528 31 71 1.6 6.4 0.00 0.00 0.00 64 1009.4
20260509211030 31 121 1.6 9.7 0.00 0.00 0.00 65 1009.5
20260509210526 31 171 3.2 9.7 0.00 0.00 0.00 65 1009.6
20260509210029 31 342 0.0 4.8 0.00 0.00 0.00 64 1009.7
20260509205525 31 346 0.0 8.0 0.00 0.00 0.00 65 1009.8
20260509205023 31 319 1.6 9.7 0.00 0.00 0.00 64 1009.8
20260509204523 31 340 3.2 9.7 0.00 0.00 0.00 64 1009.9
20260509204023 31 329 0.0 4.8 0.00 0.00 0.00 64 1009.8
20260509203521 31 324 0.0 9.7 0.00 0.00 0.00 66 1009.9
20260509203021 31 284 3.2 9.7 0.00 0.00 0.00 66 1009.9
20260509202520 31 321 3.2 9.7 0.00 0.00 0.00 65 1010.0
20260509202021 31 76 3.2 9.7 0.00 0.00 0.00 64 1010.0
20260509201518 31 177 1.6 4.8 0.00 0.00 0.00 67 1010.0
20260509201017 31 22 0.0 9.7 0.00 0.00 0.00 67 1010.1
20260509200517 30 344 4.8 12.9 0.00 0.00 0.00 66 1010.0
20260509200017 31 42 3.2 12.9 0.00 0.08 0.00 65 1010.1
20260509195520 31 13 3.2 12.9 0.00 0.08 0.00 66 1010.1
20260509195014 31 338 1.6 8.0 0.00 0.08 0.00 68 1010.2
20260509194521 31 24 1.6 6.4 0.00 0.08 0.00 68 1010.3
20260509194014 30 46 1.6 6.4 0.00 0.08 0.00 66 1010.2
20260509193519 30 192 1.6 4.8 0.00 0.08 0.00 67 1010.3
20260509193013 30 344 0.0 4.8 0.00 0.08 0.00 70 1010.3
20260509192510 30 287 0.0 4.8 0.00 0.08 0.00 69 1010.5
20260509192013 30 321 0.0 8.0 0.00 0.08 0.00 68 1010.5
20260509191510 30 283 1.6 8.0 0.00 0.08 0.00 69 1010.5
20260509191008 30 333 0.0 8.0 0.00 0.08 0.00 69 1010.5
20260509190509 30 333 3.2 8.0 0.00 0.08 0.00 68 1010.7
20260509190011 30 350 0.0 6.4 0.00 0.08 0.00 71 1010.6
20260509185506 30 342 1.6 6.4 0.00 0.08 0.00 70 1010.8
20260509185007 30 187 0.0 8.0 0.00 0.08 0.00 71 1010.9
20260509184504 30 188 0.0 8.0 0.00 0.08 0.00 71 1010.9
20260509184003 29 162 0.0 0.0 0.00 0.08 0.00 71 1010.8
20260509183502 29 286 0.0 4.8 0.00 0.08 0.00 72 1011.0
20260509183002 29 284 0.0 4.8 0.00 0.08 0.00 72 1011.1
20260509182502 29 178 1.6 8.0 0.00 0.08 0.00 71 1011.1
20260509182001 29 194 0.0 9.7 0.00 0.08 0.00 72 1011.1
20260509181501 29 167 4.8 14.5 0.00 0.08 0.00 71 1011.3
20260509181101 29 137 4.8 14.5 0.00 0.08 0.00 71 1011.3
20260509180600 29 178 3.2 8.0 0.00 0.08 0.00 72 1011.5
20260509180109 29 207 0.0 11.3 0.00 0.08 0.00 72 1011.7
20260509175602 29 174 3.2 11.3 0.00 0.08 0.00 71 1011.8
20260509175056 28 173 1.6 6.4 0.00 0.08 0.00 73 1011.8
20260509174555 28 232 3.2 11.3 0.00 0.08 0.00 75 1012.0
20260509174055 28 183 6.4 12.9 0.00 0.08 0.00 76 1012.0
20260509173554 28 148 3.2 12.9 0.00 0.08 0.00 77 1012.0
20260509173057 28 125 3.2 8.0 0.00 0.08 0.00 78 1012.1
20260509172552 28 187 1.6 11.3 0.00 0.08 0.00 80 1012.1
20260509172053 27 159 1.6 14.5 0.00 0.08 0.00 81 1012.1
20260509171549 27 160 6.4 14.5 0.00 0.08 0.00 82 1012.1
20260509171053 27 174 1.6 11.3 0.00 0.08 0.00 81 1012.2
20260509170551 27 224 0.0 9.7 0.00 0.08 0.00 82 1012.4
20260509170058 27 181 0.0 6.4 0.00 0.08 0.00 82 1012.3
20260509165546 27 153 1.6 4.8 0.00 0.08 0.00 83 1012.4
20260509165044 27 153 0.0 1.6 0.00 0.08 0.00 84 1012.3
20260509164543 26 153 0.0 3.2 0.00 0.08 0.00 84 1012.3
20260509164045 26 153 0.0 3.2 0.00 0.08 0.00 84 1012.4
20260509163542 26 355 0.0 3.2 0.00 0.08 0.00 84 1012.3
20260509163101 26 355 0.0 3.2 0.00 0.08 0.00 85 1012.3
20260509162544 26 355 0.0 3.2 0.00 0.08 0.00 85 1012.3
20260509162041 26 355 0.0 1.6 0.00 0.08 0.00 86 1012.3
20260509161541 26 348 0.0 0.0 0.00 0.08 0.00 86 1012.3
20260509161043 26 350 0.0 3.2 0.00 0.08 0.00 86 1012.4
20260509160539 26 355 0.0 3.2 0.00 0.08 0.00 87 1012.5
20260509160037 26 74 0.0 0.0 0.00 0.08 0.00 87 1012.5
20260509155541 26 74 0.0 3.2 0.00 0.08 0.00 87 1012.5
20260509155035 26 72 0.0 3.2 0.00 0.08 0.00 88 1012.3
20260509154540 25 72 0.0 3.2 0.00 0.08 0.00 89 1012.3
20260509154033 25 126 0.0 3.2 0.00 0.08 0.00 90 1012.2
20260509153535 25 126 0.0 3.2 0.00 0.08 0.00 90 1012.3
20260509153034 25 126 0.0 3.2 0.00 0.08 0.00 90 1012.0
20260509152532 25 138 0.0 3.2 0.00 0.08 0.00 91 1012.3
20260509152032 25 138 0.0 3.2 0.00 0.08 0.00 91 1012.3
20260509151530 25 138 0.0 1.6 0.00 0.08 0.00 91 1012.3
20260509151029 25 138 0.0 1.6 0.00 0.08 0.00 92 1012.3
20260509150529 25 138 0.0 3.2 0.00 0.08 0.00 92 1012.3
20260509150028 25 138 0.0 3.2 0.00 0.08 0.00 93 1012.2
20260509145028 24 138 1.6 3.2 0.00 0.08 0.00 93 1011.9
20260509144526 24 42 0.0 3.2 0.00 0.08 0.00 94 1012.0
20260509144025 24 345 0.0 1.6 0.00 0.08 0.00 94 1012.0
20260509143528 24 345 0.0 0.0 0.00 0.08 0.00 95 1012.0
20260509143025 24 345 0.0 1.6 0.00 0.08 0.00 95 1011.8
20260509142524 24 345 0.0 1.6 0.00 0.08 0.00 95 1011.7
20260509142024 24 345 0.0 1.6 0.00 0.08 0.00 95 1011.7
20260509141536 24 345 0.0 1.6 0.00 0.08 0.00 95 1011.6
20260509141024 24 345 0.0 4.8 0.00 0.08 0.00 95 1011.5
20260509140523 24 345 1.6 4.8 0.00 0.08 0.00 95 1011.4
20260509140023 24 169 0.0 3.2 0.00 0.08 0.00 96 1011.5
20260509135523 24 165 0.0 3.2 0.00 0.08 0.00 96 1011.5
20260509135022 24 164 0.0 3.2 0.00 0.08 0.00 96 1011.6
20260509134522 24 171 0.0 3.2 0.00 0.08 0.00 96 1011.8
20260509134022 23 171 0.0 3.2 0.00 0.08 0.00 96 1011.6
20260509133524 23 171 0.0 0.0 0.00 0.08 0.00 96 1011.8
20260509133020 23 128 0.0 0.0 0.00 0.08 0.00 96 1012.1
20260509132520 23 123 0.0 0.0 0.00 0.08 0.00 96 1012.2
20260509132020 23 118 0.0 0.0 0.00 0.08 0.00 96 1012.6
20260509131522 23 118 0.0 0.0 0.00 0.08 0.00 96 1012.6
20260509131023 23 118 0.0 0.0 0.00 0.08 0.00 96 1012.6
20260509130517 23 118 0.0 0.0 0.00 0.08 0.00 96 1012.4
20260509130016 23 118 0.0 0.0 0.00 0.08 0.00 96 1012.3
20260509125518 23 118 0.0 0.0 0.00 0.08 0.00 96 1012.2
20260509125015 23 118 0.0 0.0 0.00 0.08 0.00 97 1012.2
20260509124516 23 118 0.0 0.0 0.00 0.08 0.00 97 1012.3
20260509124015 23 117 0.0 0.0 0.00 0.08 0.00 97 1012.1
20260509123515 23 116 0.0 0.0 0.00 0.08 0.00 96 1012.1
20260509123014 23 116 0.0 0.0 0.00 0.08 0.00 96 1012.0
20260509122514 23 115 0.0 0.0 0.00 0.08 0.00 96 1012.1
20260509122014 23 115 0.0 0.0 0.00 0.08 0.00 96 1012.1
20260509121516 23 115 0.0 0.0 0.00 0.08 0.00 96 1012.1
20260509121014 23 115 0.0 0.0 0.00 0.08 0.00 96 1011.9
20260509120514 23 115 0.0 0.0 0.00 0.08 0.00 96 1011.9
20260509120014 23 115 0.0 0.0 0.00 0.08 0.00 96 1011.8
20260509115513 23 115 0.0 0.0 0.00 0.08 0.00 96 1011.8
20260509115020 23 115 0.0 0.0 0.00 0.08 0.00 96 1011.8
20260509114513 23 115 0.0 0.0 0.00 0.08 0.00 96 1011.8
20260509114013 23 115 0.0 0.0 0.00 0.08 0.00 96 1011.9
20260509113513 23 115 0.0 0.0 0.00 0.08 0.00 96 1012.1
20260509113013 23 115 0.0 0.0 0.00 0.08 0.00 96 1012.0
20260509112512 23 115 0.0 3.2 0.00 0.08 0.00 96 1011.9
20260509112012 23 115 0.0 3.2 0.00 0.08 0.00 96 1012.0
20260509111516 23 115 0.0 3.2 0.00 0.08 0.00 96 1012.1
20260509111017 23 115 0.0 3.2 0.00 0.08 0.00 96 1012.0
20260509110513 23 161 0.0 0.0 0.00 0.08 0.00 96 1012.1
20260509110014 23 161 0.0 0.0 0.00 0.08 0.00 96 1011.9
20260509105512 23 161 0.0 0.0 0.00 0.08 0.00 96 1011.6
20260509105011 23 161 0.0 0.0 0.00 0.08 0.00 96 1011.5
20260509104524 23 161 0.0 0.0 0.00 0.08 0.00 96 1011.4
20260509104011 23 161 0.0 0.0 0.00 0.08 0.00 96 1011.2
20260509103511 23 161 0.0 3.2 0.00 0.08 0.00 96 1011.2
20260509103011 23 161 0.0 3.2 0.00 0.08 0.00 96 1011.3
20260509102513 23 161 0.0 3.2 0.00 0.08 0.00 96 1011.4
20260509102010 23 161 0.0 0.0 0.00 0.08 0.00 95 1011.4
20260509101511 23 161 0.0 0.0 0.00 0.08 0.00 95 1011.3
20260509101010 23 161 0.0 0.0 0.00 0.08 0.00 95 1011.2
20260509100510 23 161 0.0 0.0 0.00 0.08 0.00 95 1011.2
20260509100017 23 161 0.0 0.0 0.00 0.08 0.00 95 1011.1
20260509095510 23 161 0.0 0.0 0.00 0.08 0.00 95 1011.0
20260509095009 23 161 0.0 0.0 0.00 0.08 0.00 95 1011.1
20260509094509 23 161 0.0 0.0 0.00 0.08 0.00 95 1011.0
20260509094009 23 161 0.0 0.0 0.00 0.08 0.00 95 1011.1
20260509093510 23 161 0.0 0.0 0.00 0.08 0.00 95 1011.0
20260509093009 23 161 0.0 0.0 0.00 0.08 0.00 95 1011.2
20260509092508 23 161 0.0 0.0 0.00 0.08 0.00 95 1011.2
20260509092008 23 161 0.0 0.0 0.00 0.08 0.00 95 1011.2
20260509091508 23 161 0.0 0.0 0.00 0.08 0.00 95 1011.4
20260509091008 23 161 0.0 0.0 0.00 0.08 0.00 95 1011.5
20260509090508 23 161 0.0 0.0 0.00 0.08 0.00 95 1011.4
20260509090008 23 161 0.0 0.0 0.00 0.08 0.00 95 1011.5
20260509085507 23 161 0.0 0.0 0.00 0.08 0.00 95 1011.4
20260509085007 23 161 0.0 0.0 0.00 0.08 0.00 95 1011.4
20260509084508 23 161 0.0 1.6 0.00 0.08 0.00 95 1011.3
20260509084007 23 161 0.0 1.6 0.00 0.08 0.00 95 1011.2
20260509083509 23 161 0.0 4.8 0.00 0.08 0.00 95 1011.3
20260509083008 23 161 0.0 6.4 0.00 0.08 0.00 95 1011.2
20260509082508 23 168 1.6 6.4 0.00 0.08 0.00 95 1011.1
20260509082007 23 180 1.6 8.0 0.00 0.08 0.00 95 1011.1
20260509081507 23 164 1.6 4.8 0.00 0.08 0.00 95 1011.2
20260509081007 23 172 0.0 3.2 0.00 0.08 0.00 95 1011.3
20260509080506 23 173 0.0 4.8 0.00 0.08 0.00 95 1011.3
20260509080006 23 176 0.0 6.4 0.00 0.08 0.00 95 1011.2
20260509075506 23 167 0.0 4.8 0.00 0.08 0.00 95 1011.2
20260509075005 23 212 0.0 8.0 0.00 0.08 0.00 95 1011.2
20260509074506 23 156 1.6 8.0 0.00 0.08 0.00 95 1011.1
20260509074007 23 178 1.6 6.4 0.00 0.08 0.00 95 1011.1
20260509073504 23 147 3.2 11.3 0.00 0.08 0.00 95 1011.2
20260509073006 23 159 1.6 11.3 0.00 0.08 0.00 95 1011.3
20260509072503 23 150 3.2 8.0 0.00 0.08 0.00 95 1011.4
20260509072000 23 159 1.6 8.0 0.00 0.08 0.00 95 1011.4
20260509071601 23 113 0.0 3.2 0.00 0.08 0.00 95 1011.6
20260509071100 23 111 0.0 1.6 0.00 0.08 0.00 95 1011.7
20260509070600 23 111 0.0 1.6 0.00 0.08 0.00 95 1011.7
20260509070104 23 111 0.0 1.6 0.00 0.08 0.00 95 1011.5
20260509065559 23 111 0.0 0.0 0.00 0.08 0.00 95 1011.7
20260509065059 23 111 0.0 1.6 0.00 0.08 0.00 95 1011.6
20260509064559 23 111 0.0 3.2 0.00 0.08 0.00 95 1011.6
20260509064059 23 111 0.0 3.2 0.00 0.08 0.00 95 1011.6
20260509063558 23 111 0.0 0.0 0.00 0.08 0.00 95 1011.7
20260509063102 23 111 0.0 0.0 0.00 0.08 0.00 95 1011.7
20260509062556 23 111 0.0 0.0 0.00 0.08 0.00 95 1011.8
20260509062054 23 111 0.0 1.6 0.00 0.08 0.00 94 1011.9
20260509061606 23 111 0.0 0.0 0.00 0.08 0.00 95 1011.8
20260509061053 23 111 0.0 0.0 0.00 0.08 0.00 95 1011.8
20260509060553 23 111 0.0 0.0 0.00 0.08 0.00 95 1011.7
20260509060051 23 111 0.0 0.0 0.00 0.08 0.00 95 1011.8
20260509055553 23 111 0.0 0.0 0.00 0.08 0.00 95 1011.9
20260509055047 23 111 0.0 0.0 0.00 0.08 0.00 94 1012.0
20260509054555 23 111 0.0 0.0 0.00 0.08 0.00 94 1012.0
20260509054044 23 111 0.0 1.6 0.00 0.08 0.00 94 1011.9
20260509053544 23 111 0.0 1.6 0.00 0.08 0.00 94 1011.9
20260509053055 23 111 0.0 1.6 0.00 0.08 0.00 94 1012.0
20260509052542 23 111 0.0 1.6 0.00 0.08 0.00 94 1012.0
20260509052038 23 111 0.0 4.8 0.00 0.08 0.00 94 1012.0
20260509051537 23 111 0.0 4.8 0.00 0.08 0.00 94 1012.0
20260509051036 23 113 0.0 4.8 0.00 0.08 0.00 94 1012.2
20260509050535 23 105 0.0 3.2 0.00 0.08 0.00 94 1012.0
20260509050033 23 105 0.0 1.6 0.00 0.08 0.00 94 1012.2
20260509045532 23 105 0.0 0.0 0.00 0.08 0.08 94 1012.1
20260509045029 23 105 0.0 3.2 0.00 0.08 0.08 94 1012.2
20260509044533 23 105 0.0 3.2 0.00 0.08 0.08 94 1012.2
20260509044027 23 105 0.0 4.8 0.00 0.08 0.08 94 1012.3